EHI
4 3 3 2 2 2 3 4 5 3 1 0 0 1 3 2 1 0 0 0 0 0 0 0 0 0 0 0 0 0 0 0 0 0 0 0 0 0
6 5 4 5 5 4 4 6 7 7 4 1 0 2 3 2 1 1 0 0 0 0 0 0 0 0 0 0 0 0 0 0 0 0 0 0 0 0
8 7 6 8 9 8 7 7 8 9 6 3 1 2 4 4 3 2 1 0 0 0 0 0 0 0 0 0 0 0 0 0 0 0 0 0 0 0
9 8 8 9 11 12 10 7 6 6 5 4 2 2 4 4 4 3 1 0 0 0 0 0 0 0 0 0 0 0 0 0 0 0 0 0 0 0
9 9 9 9 10 11 10 7 4 3 4 4 2 2 2 3 3 2 1 1 0 0 0 0 0 0 0 0 0 0 0 0 0 0 0 0 0 0
9 8 8 7 7 7 7 7 4 4 4 4 3 1 2 2 2 1 1 1 1 1 1 0 0 0 0 0 0 0 0 0 0 0 0 0 0 0
7 7 5 4 3 3 4 4 4 4 4 3 2 1 1 2 2 1 1 1 1 2 2 1 0 0 0 0 0 0 0 0 0 0 0 0 0 0
7 6 3 1 1 1 1 1 2 2 2 2 1 0 1 2 3 2 1 1 2 4 4 2 1 1 0 0 0 0 0 0 0 0 0 0 0 0
7 6 3 1 0 0 0 0 0 0 1 1 0 0 1 3 3 3 4 3 4 6 5 4 4 3 1 0 0 0 0 0 0 0 0 0 0 0
5 5 3 2 0 0 0 0 0 0 0 0 0 0 1 2 3 4 5 6 5 4 4 3 4 3 1 0 0 0 0 0 0 0 0 0 0 0
4 3 2 1 0 0 0 0 0 0 0 0 0 0 0 1 1 2 3 3 2 2 1 1 1 1 0 0 0 0 0 0 0 0 0 0 0 0
3 3 1 0 0 0 0 0 0 0 0 1 1 0 0 0 0 1 1 1 0 1 1 1 1 1 1 0 0 0 0 0 0 0 0 0 0 0
4 4 2 1 0 0 0 0 0 0 0 1 1 0 0 0 0 0 0 0 0 1 1 2 2 2 1 0 0 0 0 0 0 0 0 0 0 0
3 3 2 1 0 0 0 0 0 0 0 1 1 0 0 0 0 0 0 0 0 0 1 2 2 2 1 0 0 0 0 0 0 0 0 0 0 0
2 1 1 0 0 0 0 0 0 0 0 0 0 0 0 0 0 0 0 0 0 0 0 1 1 1 0 0 0 0 0 0 0 0 0 0 0 0
1 0 0 0 0 0 0 0 0 0 0 0 0 0 0 0 0 0 0 0 0 0 0 0 0 0 0 0 0 0 0 0 0 0 0 0 0 0
0 0 0 0 0 0 0 0 0 0 0 0 0 0 0 0 0 0 0 0 0 0 0 0 0 0 0 0 0 0 0 0 0 0 0 0 0 0
0 0 0 0 0 0 0 0 0 0 0 0 0 0 0 0 0 0 0 0 0 0 0 0 0 0 0 0 0 0 0 0 0 0 0 0 0 0
0 0 0 0 0 0 0 0 0 0 0 0 0 0 0 0 0 0 0 0 0 0 0 0 0 0 0 0 0 0 0 0 0 0 0 0 0 0
0 0 0 0 0 0 0 0 0 0 0 0 0 0 0 0 0 0 0 0 0 0 0 0 0 0 0 0 0 0 0 0 0 0 0 0 0 0
0 0 0 0 0 0 0 0 0 0 0 0 0 0 0 0 0 0 0 0 0 0 0 0 0 0 0 0 0 0 0 0 0 0 0 0 0 0
0 0 0 0 0 0 0 0 0 0 0 0 0 0 0 0 0 0 0 0 0 0 0 0 0 0 0 0 0 0 0 0 0 0 0 0 0 0
0 0 0 0 0 0 0 0 0 0 0 0 0 0 0 0 0 0 0 0 0 0 0 0 0 0 0 0 0 0 0 0 0 0 0 0 0 0
Wind_Speed
8 8 7 6 6 5 5 5 6 6 5 5 5 5 5 4 4 7 7 9 11 10 10 10 10 10 10 10 10 10 10 10 11 11 11 12 12 13
5 6 6 7 5 5 6 6 6 6 6 4 4 4 3 4 6 7 7 8 10 11 10 10 10 10 10 11 11 11 11 11 12 12 12 12 12 13
7 7 8 7 5 6 6 6 6 6 7 6 4 3 3 6 4 5 7 7 8 12 11 10 10 10 11 11 11 12 12 12 12 12 13 13 13 13
8 7 8 6 7 7 5 6 6 5 7 7 5 4 5 6 5 7 7 7 7 8 11 10 10 10 11 11 11 11 11 12 12 12 13 13 13 14
7 7 7 6 6 6 6 6 5 6 5 7 7 4 4 4 5 6 7 5 8 6 10 11 10 10 10 11 11 11 11 11 11 12 12 12 12 13
5 5 5 6 6 6 5 6 6 6 5 6 6 4 4 4 4 5 5 5 6 6 5 5 8 11 11 11 11 11 10 10 11 11 11 11 12 12
5 5 5 3 2 3 4 4 4 5 5 5 5 5 4 3 4 5 6 5 5 5 6 6 6 7 8 11 12 10 10 10 10 10 11 11 12 12
4 4 4 4 3 3 2 2 3 5 5 5 4 4 4 4 4 5 6 6 6 3 5 7 6 7 6 6 4 7 9 10 10 10 11 11 12 12
3 3 4 3 4 4 5 5 4 3 4 6 6 5 4 4 5 6 6 7 7 6 6 8 7 7 7 4 3 5 7 8 9 10 11 11 11 12
1 1 1 0 1 2 2 2 2 2 2 3 3 3 3 4 5 6 7 7 8 6 5 7 7 6 6 5 3 6 7 8 9 10 11 11 11 12
2 3 2 1 4 3 2 2 1 1 2 2 1 1 1 2 4 6 6 6 7 5 3 6 7 7 7 7 5 7 8 10 10 11 11 12 12 11
3 4 6 4 4 3 1 0 0 1 1 1 2 3 3 2 4 4 5 6 6 6 3 5 7 7 7 6 5 5 6 8 11 12 12 12 11 10
2 3 4 6 5 5 3 2 2 3 2 2 1 1 1 2 2 3 4 5 6 6 5 5 7 7 8 8 8 8 8 7 7 8 10 12 12 11
4 4 6 7 7 6 4 4 3 4 2 1 2 2 3 3 4 4 5 5 5 7 7 7 7 7 9 10 10 8 8 8 8 8 8 7 10 13
7 9 8 5 5 6 6 3 3 2 3 3 3 4 4 4 5 4 5 5 7 7 6 6 7 7 8 10 10 10 10 9 8 8 8 8 8 8
6 7 7 5 4 5 3 3 4 5 5 4 4 4 4 4 4 5 6 6 7 7 5 6 7 8 9 10 10 10 9 9 8 8 8 9 9 9
2 3 3 4 4 4 4 4 4 4 4 5 5 5 5 5 5 5 5 7 7 8 7 5 6 7 9 10 10 9 9 9 8 8 8 10 10 9
3 5 5 5 5 5 4 4 4 5 5 5 5 5 6 6 6 6 6 7 8 8 8 8 7 8 8 7 6 9 9 9 9 9 10 11 11 9
4 6 5 5 5 5 5 5 5 5 5 5 6 6 6 7 7 7 7 7 7 8 8 8 8 8 10 10 7 4 8 9 10 10 9 10 11 10
6 6 5 5 5 5 5 5 5 5 5 6 6 6 7 7 7 7 7 8 8 9 8 7 7 7 9 10 10 10 9 10 9 10 10 10 10 10
6 6 6 5 5 6 6 6 6 6 6 6 6 7 7 7 7 8 8 9 9 9 9 9 8 9 10 9 10 10 9 7 7 9 10 10 10 9
6 6 6 6 6 6 6 6 6 6 7 6 7 7 7 7 8 9 9 9 8 9 10 9 9 8 8 9 11 11 11 9 7 8 9 9 8 8
6 6 5 5 6 6 6 7 8 7 7 8 8 8 8 8 8 8 8 8 8 9 9 9 9 8 8 9 10 10 12 12 9 8 6 5 8 11
Wind_Direction
217 216 233 239 236 243 248 253 259 262 245 206 223 214 224 225 175 221 231 192 203 215 222 228 231 234 236 238 239 241 243 246 247 248 251 253 254 256
222 229 232 237 231 235 240 246 254 266 272 256 226 229 237 252 191 232 241 184 202 214 221 226 232 236 237 237 238 239 242 245 247 249 250 251 251 252
217 218 225 240 237 234 232 238 244 250 259 263 249 229 231 264 247 245 246 238 218 201 212 223 232 237 239 239 240 240 242 245 248 250 251 251 250 250
216 220 225 223 228 248 247 245 247 253 259 265 263 243 226 242 249 252 252 246 252 187 197 215 226 233 237 239 241 243 244 246 248 249 251 253 253 254
215 218 224 225 228 233 242 248 245 240 247 258 257 261 254 248 253 249 250 258 264 212 194 206 217 226 234 238 240 242 244 246 248 249 250 252 252 254
215 217 222 225 231 234 235 244 252 255 246 254 259 255 253 252 260 265 259 241 259 269 256 239 216 217 226 229 233 238 241 244 247 249 251 252 253 253
209 213 218 216 253 255 255 246 248 253 252 251 257 261 261 265 264 271 276 279 261 265 271 262 243 239 225 220 225 232 237 241 245 248 250 252 254 254
208 211 207 194 199 207 260 295 291 266 269 271 269 274 285 288 295 287 287 282 278 269 274 272 270 268 263 260 219 213 229 240 247 252 254 256 257 257
216 221 231 196 194 210 199 204 221 236 263 276 281 290 291 296 292 283 284 289 290 297 290 280 276 275 274 274 189 219 238 248 254 257 258 258 259 260
215 234 234 259 319 284 249 221 223 207 225 241 272 289 309 317 296 284 285 278 272 267 278 280 287 288 293 292 211 220 239 251 256 258 261 262 264 264
68 53 47 58 33 359 260 236 212 161 118 111 81 340 344 326 310 293 290 287 288 291 295 288 295 298 292 284 260 214 230 243 250 252 255 257 260 263
104 89 67 49 43 25 321 345 204 289 286 180 196 219 246 228 235 280 298 296 297 296 327 306 300 304 297 290 295 287 265 248 241 243 246 248 249 261
104 88 69 64 60 46 21 25 354 305 283 278 273 287 297 308 311 323 324 310 306 302 322 317 304 302 296 298 298 293 291 291 282 268 246 240 237 245
73 73 74 72 71 58 52 33 338 291 301 329 339 345 340 343 349 337 326 314 304 298 302 303 298 301 299 296 296 297 296 294 291 290 290 271 246 240
73 80 85 90 100 87 71 24 341 3 10 5 0 357 351 348 326 314 303 295 282 277 282 287 288 293 291 291 296 299 300 296 291 291 291 289 289 282
94 110 120 103 88 77 75 44 35 34 11 7 357 346 336 328 322 326 321 317 307 300 292 283 278 283 284 289 291 293 295 297 301 297 297 295 291 283
73 89 70 66 57 51 50 44 28 23 13 4 351 341 333 327 323 320 317 310 306 309 311 306 296 287 283 284 288 290 296 297 299 303 299 292 289 287
26 69 58 47 41 36 28 24 25 20 3 348 341 335 329 323 320 317 312 308 308 309 312 314 313 306 297 286 277 295 302 306 307 304 296 291 291 290
54 57 48 39 33 27 20 14 11 11 353 342 341 338 331 325 321 320 319 318 316 315 316 316 314 310 307 307 309 300 309 306 303 301 300 299 298 300
54 51 45 37 30 20 14 6 359 358 354 345 341 338 333 327 324 322 321 325 319 313 311 311 314 319 313 308 306 302 287 291 300 302 303 301 295 291
52 48 38 29 23 18 10 2 356 353 352 338 339 339 333 328 325 324 320 320 311 308 311 312 321 311 296 292 290 294 301 291 287 294 301 300 301 301
44 41 34 24 20 13 5 358 351 351 350 343 344 340 335 330 326 322 320 319 317 314 313 311 312 308 305 303 303 305 309 314 302 274 266 270 292 301
36 27 23 21 19 8 2 358 355 356 356 350 346 341 337 333 326 321 320 317 316 317 318 316 318 316 311 306 307 309 314 318 317 316 310 272 252 256